Volver al catálogo

STARLINK-35505

ActivoComunicacionesVLEO
NORAD 66329·PAYLOAD·🇺🇸 United States

Lanzado Nov 6, 2025 desde Cape Canaveral Space Force Station

Loading…

Próximos Pases (próximas 24 horas)

TLE

ActualizadoSource: CelesTrak SupGP

Época: Sep 14, 2026, 20:56 UTC

1 66329C 25253L   26257.87270833  .00033638  00000+0  12183-2 0  2579
2 66329  43.0012 224.1067 0001413 262.8228 236.8231 15.27563621    13

Sigue STARLINK-35505 en tiempo real con AllMySat

Download on the App Store